GW2347 Weather Reports


Display with metric or nautical units.
time (UTC)temp
F
wind
direction
speed
MPH
gust
MPH
rain 1hr
in
rain 24hr
in
rain mn
in
humidity
%
barometer
mb
20260505153004 35 5 2.0 7.0 0.01 0.18 0.12 93 1022.4
20260505151551 35 360 2.0 6.0 0.01 0.18 0.12 93 1022.2
20260505150106 34 13 0.0 5.0 0.01 0.18 0.12 93 1022.1
20260505124558 34 355 3.0 15.0 0.01 0.16 0.10 92 1020.5
20260505124502 34 24 3.0 15.0 0.01 0.16 0.10 92 1020.5
20260505123055 34 330 4.0 12.0 0.02 0.15 0.09 92 1020.1
20260505121610 34 5 5.0 13.0 0.03 0.15 0.09 92 1020.1
20260505120025 35 279 5.0 13.0 0.03 0.15 0.09 91 1019.8
20260505114535 35 269 3.0 11.0 0.04 0.15 0.09 91 1019.8
20260505113019 36 22 3.0 14.0 0.03 0.13 0.07 90 1019.6
20260505111534 38 16 9.0 18.0 0.02 0.12 0.06 91 1019.3
20260505101542 39 17 12.0 17.0 0.04 0.10 0.04 91 1017.9
20260505100036 40 331 9.0 16.0 0.03 0.09 0.03 92 1017.4
20260505094536 40 360 9.0 16.0 0.02 0.08 0.02 92 1017.3
20260505093030 41 20 9.0 14.0 0.01 0.07 0.01 92 1017.0
20260505091516 41 331 3.0 13.0 0.00 0.06 0.00 92 1017.0
20260505090023 41 5 5.0 13.0 0.00 0.06 0.00 91 1016.9
20260505084513 42 92 5.0 15.0 0.00 0.06 0.00 90 1016.7
20260505083032 43 330 6.0 13.0 0.00 0.06 0.00 89 1016.9
20260505081515 46 5 8.0 18.0 0.00 0.06 0.00 87 1016.9
20260505074547 47 189 0.0 0.0 0.00 0.06 0.00 90 1016.7
20260505073055 46 189 0.0 0.0 0.00 0.06 0.00 89 1016.8
20260505071542 47 152 0.0 4.0 0.00 0.06 0.00 89 1016.7
20260505070038 47 161 2.0 5.0 0.00 0.06 0.00 89 1016.6
20260505064546 47 152 1.0 4.0 0.00 0.06 0.00 88 1016.6
20260505063050 47 178 0.0 4.0 0.00 0.06 0.00 89 1016.6
20260505061549 46 171 1.0 6.0 0.00 0.06 0.00 88 1016.6
20260505060037 46 169 2.0 5.0 0.00 0.06 0.06 88 1016.8
20260505054534 46 277 2.0 8.0 0.00 0.06 0.06 89 1016.8
20260505053017 46 182 2.0 5.0 0.01 0.06 0.06 88 1016.4
20260505051508 46 199 1.0 6.0 0.02 0.06 0.06 88 1016.4
20260505041600 47 253 5.0 10.0 0.02 0.04 0.04 85 1016.8
20260505040045 47 249 6.0 8.0 0.04 0.04 0.04 85 1016.5
20260505034536 48 257 2.0 4.0 0.03 0.03 0.03 86 1016.5
20260505033024 48 261 4.0 10.0 0.03 0.03 0.03 85 1016.4
20260505031534 49 337 2.0 11.0 0.02 0.02 0.02 80 1016.1
20260505030017 50 355 4.0 11.0 0.00 0.00 0.00 74 1015.3
20260505024506 51 316 3.0 8.0 0.00 0.00 0.00 69 1014.9
20260505023113 51 331 5.0 10.0 0.00 0.00 0.00 67 1014.7
20260505021557 52 307 4.0 11.0 0.00 0.00 0.00 67 1014.7
20260505020006 53 360 7.0 14.0 0.00 0.00 0.00 65 1014.8
20260505014555 56 327 7.0 12.0 0.00 0.00 0.00 53 1014.5
20260505013043 56 10 4.0 6.0 0.00 0.00 0.00 54 1014.4
20260505011537 56 33 4.0 8.0 0.00 0.00 0.00 53 1014.2
20260505010106 57 5 2.0 4.0 0.00 0.00 0.00 52 1014.1
20260505004541 58 224 5.0 8.0 0.00 0.00 0.00 46 1014.0
20260505003045 58 248 1.0 6.0 0.00 0.00 0.00 44 1013.9
20260505001525 59 360 3.0 11.0 0.00 0.00 0.00 42 1013.4
20260505000016 59 42 5.0 13.0 0.00 0.00 0.00 41 1013.3
20260504234509 60 17 7.0 13.0 0.00 0.00 0.00 41 1013.0
20260504233010 61 302 5.0 13.0 0.00 0.00 0.00 40 1012.9
20260504231600 61 344 10.0 15.0 0.00 0.00 0.00 38 1012.7
20260504231502 61 5 8.0 15.0 0.00 0.00 0.00 39 1012.7
20260504230014 61 327 7.0 14.0 0.00 0.00 0.00 36 1012.6
20260504224508 61 148 5.0 12.0 0.00 0.00 0.00 37 1012.8
20260504223012 61 322 4.0 16.0 0.00 0.00 0.00 36 1012.7
20260504221512 62 360 7.0 19.0 0.00 0.00 0.00 35 1012.4
20260504220010 62 103 9.0 21.0 0.00 0.00 0.00 34 1011.5
20260504214553 63 14 16.0 26.0 0.00 0.00 0.00 32 1011.2
20260504213040 63 9 14.0 33.0 0.00 0.00 0.00 33 1011.6
20260504211536 67 11 5.0 11.0 0.00 0.00 0.00 25 1011.4
20260504210024 66 80 3.0 7.0 0.00 0.00 0.00 26 1011.4
20260504204520 65 24 4.0 15.0 0.00 0.00 0.00 25 1011.8
20260504203019 64 194 3.0 20.0 0.00 0.00 0.00 28 1012.1
20260504201512 62 180 3.0 9.0 0.00 0.00 0.00 32 1012.7
20260504200010 61 240 12.0 35.0 0.00 0.00 0.00 33 1012.5
20260504194548 62 181 11.0 31.0 0.00 0.00 0.00 34 1012.1
20260504193044 66 16 6.0 20.0 0.00 0.00 0.00 23 1011.3
20260504191538 67 12 15.0 22.0 0.00 0.00 0.00 20 1011.2
20260504190028 68 13 4.0 11.0 0.00 0.00 0.00 18 1011.3
20260504184528 69 15 2.0 12.0 0.00 0.00 0.00 19 1011.4
20260504183024 68 16 4.0 12.0 0.00 0.00 0.00 21 1011.7
20260504181504 68 360 7.0 16.0 0.00 0.00 0.00 22 1011.7
20260504180005 69 15 4.0 17.0 0.00 0.00 0.00 24 1011.9
20260504174511 70 5 10.0 18.0 0.00 0.00 0.00 24 1012.1
20260504173004 69 5 6.0 14.0 0.00 0.00 0.00 25 1012.5
20260504171507 68 15 8.0 15.0 0.00 0.00 0.00 25 1012.5